Location: Rimouski
(48.4330°N, 68.5170°W)
Time: 05:18:56
(UTC-05:00)

Daily predictions for brighter satellites

Satellite Brightness Start Highest point End
(mag) Time Altitude Azimuth Time Altitude Azimuth Time Altitude Azimuth
ATLAS 5 CENTAUR R/B 4.3 02:41:03 16° E 02:41:03 16° E 02:43:26 10° ENE
Cosmos 1943 Rocket 4.3 02:46:42 17° ESE 02:48:14 19° E 02:51:57 10° ENE
ATLAS CENTAUR R/B 3.8 03:20:02 48° S 03:20:02 48° S 03:29:48 10° SE
USA 234 4.1 03:15:04 10° ENE 03:21:08 40° SE 03:22:52 34° SSE
ADEOS II 2.7 03:20:28 10° NNE 03:25:38 54° E 03:26:19 50° SE
ADEOS Rocket 3.6 03:20:33 10° N 03:26:05 47° NNW 03:26:05 47° NNW
Lacrosse 5 3.3 03:30:47 29° SE 03:31:20 30° SE 03:35:43 10° ENE
Okean O Rocket 3.0 03:33:08 10° NNE 03:35:32 32° NNE 03:35:32 32° NNE
Cosmos 2278 Rocket 4.3 03:43:27 14° NNW 03:43:27 14° NNW 03:45:50 10° N
CZ-2D R/B 4.1 03:38:47 10° N 03:40:24 17° NNW 03:40:24 17° NNW
Cosmos 2369 Rocket 2.0 03:43:44 83° SW 03:43:59 89° WNW 03:49:42 10° NNE
Resurs 1-4 Rocket 4.1 03:41:13 10° N 03:42:38 16° NNW 03:42:38 16° NNW
Cosmos 407 Rocket 3.4 03:47:33 54° NNW 03:48:51 90° WSW 03:54:12 10° SSE
IRAS Rocket 4.0 03:43:59 10° NNE 03:49:30 82° WNW 03:49:58 74° SW
Nadezhda 2 Rocket 4.4 03:45:05 10° N 03:51:14 81° E 03:57:21 10° SSE
Cosmos 972 Rocket 4.0 03:51:14 62° S 03:52:07 80° ESE 03:57:42 10° NNE
Cosmos 676 Rocket 4.2 03:47:10 10° NNW 03:52:29 72° ENE 03:57:48 10° SSE
Cosmos 2266 Rocket 3.8 03:47:17 10° NNW 03:53:23 65° W 03:53:55 62° WSW
COSMO-SKYMED 1 4.3 03:53:38 10° SE 03:57:30 32° ENE 04:01:24 10° N
Lacrosse 4 Rocket 4.0 03:59:24 10° N 03:59:24 10° N 03:59:26 10° N
Meteor PRIRODA 4.2 03:56:08 10° NNE 03:59:26 55° ENE 03:59:26 55° ENE
Cosmos 1833 4.0 03:59:41 31° NW 04:02:28 77° WSW 04:08:02 10° SSE
Cosmos 1140 Rocket 3.9 04:04:49 10° NNW 04:10:01 63° ENE 04:15:13 10° SE
IRS-1C Rocket 4.1 04:07:00 10° N 04:12:09 56° WNW 04:12:43 53° W
Cosmos 1867 3.6 04:11:34 53° W 04:12:21 58° NW 04:17:46 10° NNE
Cosmos 1933 3.7 04:13:24 52° NNW 04:13:24 52° NNW 04:16:42 10° N
BREEZE M DEB (TANK) 4.3 04:07:23 30° WSW 04:15:46 82° SSE 04:20:55 10° ENE
Abrixas 3.7 04:19:22 38° ESE 04:19:22 38° ESE 04:21:23 10° E
CZ-4B R/B 4.5 04:18:21 10° N 04:20:17 23° NNW 04:20:17 23° NNW
Sich 1 Rocket 3.6 04:17:44 10° NNW 04:22:13 59° W 04:26:38 10° S
Lacrosse 5 rocket 2.5 04:21:15 26° N 04:22:13 31° NNE 04:25:28 10° E
Okean 1-7 3.8 04:19:53 10° S 04:24:01 51° E 04:28:10 10° NNE
ERS-2 2.7 04:20:27 10° N 04:23:21 45° NNW 04:23:21 45° NNW
ATLAS 5 CENTAUR R/B 1.8 04:22:37 44° SW 04:24:14 84° NW 04:29:34 10° NE
Cosmos 1908 Rocket 3.6 04:20:35 10° NNW 04:24:59 57° W 04:29:22 10° S
PSLV R/B 4.0 04:22:26 10° N 04:25:52 40° NW 04:25:52 40° NW
MOS 1 Rocket 4.3 04:22:04 10° N 04:26:56 34° WNW 04:26:58 34° WNW
CZ-4B R/B 3.5 04:22:50 10° N 04:28:12 48° WNW 04:30:06 35° WSW
Meteor 2-10 Rocket 3.5 04:23:47 10° S 04:28:46 80° E 04:33:52 10° NNE
Cosmos 2263 4.2 04:27:20 37° WSW 04:29:21 59° WNW 04:34:56 10° NNE
Cosmos 1782 Rocket 3.5 04:26:03 10° N 04:30:33 83° W 04:34:59 10° S
Cosmos 1943 Rocket 2.0 04:28:15 27° SW 04:31:19 76° WNW 04:36:55 10° NNE
Okean-O 2.5 04:27:13 10° NNE 04:31:42 84° WNW 04:35:44 12° SSW
Cosmos 921 Rocket 4.0 04:34:27 29° NW 04:34:27 29° NW 04:37:41 10° N
Cosmos 1850 Rocket 4.4 04:29:18 10° NNW 04:34:39 67° ENE 04:39:56 10° SSE
Cosmos 1624 Rocket 4.2 04:33:06 36° WSW 04:34:51 50° WNW 04:40:03 10° NNE
Meteor 1-14 Rocket 4.2 04:29:52 10° NNW 04:35:44 77° W 04:41:26 10° S
Cosmos 2056 Rocket 3.6 04:34:28 35° WSW 04:36:15 51° WNW 04:41:21 10° NNE
Tiangong 1 3.3 04:36:11 15° S 04:36:38 15° SSE 04:38:29 10° ESE
Cosmos 1244 Rocket 4.4 04:30:34 10° NNW 04:36:45 64° W 04:42:50 10° S
CZ-4C R/B 3.0 04:34:01 10° SSW 04:39:09 52° ESE 04:45:01 10° NE
Meteor 1-28 Rocket 3.7 04:38:10 10° SSE 04:41:50 60° ENE 04:45:33 10° N
Cosmos 1954 Rocket 4.0 04:37:36 10° NNW 04:42:49 57° WSW 04:48:00 10° S
SKYMED 2 3.5 04:41:06 10° SSE 04:45:27 87° W 04:49:50 10° NNW
Cosmos 1782 4.0 04:42:59 10° SSE 04:46:46 44° E 04:50:35 10° NNE
NOAA 6 4.1 04:41:36 10° NNE 04:46:49 82° ESE 04:51:58 10° SSW
SL-08 R/B 4.4 04:46:09 10° NNW 04:52:27 74° W 04:58:45 10° S
Cosmos 1420 Rocket 4.4 04:48:02 10° S 04:53:09 66° ESE 04:58:19 10° NNE
Okean 2 Rocket 3.0 04:48:47 10° NNW 04:53:10 65° W 04:57:29 10° S
Meteor 1-26 Rocket 4.3 04:56:08 10° SSW 05:01:43 56° WNW 05:07:14 10° N
Cosmos 1606 3.6 05:00:07 10° S 05:03:53 53° E 05:07:43 10° NNE
USA 234 3.2 04:57:58 10° NE 05:04:30 78° NNW 05:10:14 14° WSW
ADEOS II 3.1 05:00:47 10° N 05:05:04 26° WNW 05:07:16 19° W
Thor Agena Rocket 4.1 05:00:40 10° SSW 05:05:24 35° W 05:10:08 10° NNW
Meteor 1-25 Rocket 4.3 05:00:19 10° NNW 05:06:04 62° W 05:11:48 10° S
S3M 4.0 05:00:34 10° SSW 05:06:55 76° W 05:13:14 10° N
Cosmos 2297 Rocket 3.4 05:01:31 10° NNW 05:06:56 44° NE 05:12:19 10° SE
DMSP B5D1-3 4.4 05:03:25 10° S 05:08:29 71° WSW 05:13:36 10° NNW
Cosmos 1703 Rocket 4.0 05:04:32 10° SW 05:08:36 38° WNW 05:12:42 10° N
Meteor 1-31 Rocket 3.6 05:08:43 10° N 05:12:11 30° WNW 05:14:57 14° SW
Cosmos 2151 Rocket 3.6 05:07:44 10° N 05:12:17 85° W 05:16:47 10° S
Okean O Rocket 3.5 05:11:22 10° NNW 05:13:00 13° NW 05:13:00 13° NW
Lacrosse 5 1.9 05:10:01 16° WSW 05:14:00 70° NNW 05:19:05 10° NE
Cosmos 1553 Rocket 4.0 05:08:42 10° SSW 05:14:50 65° WNW 05:21:08 10° N
CZ-4 R/B 3.6 05:13:14 10° NNE 05:16:59 30° E 05:20:39 10° SSE
Cosmos 1452 Rocket 3.7 05:12:27 10° SW 05:17:36 53° WNW 05:22:49 10° NNE
Cosmos 2219 3.5 05:14:23 10° NW 05:19:48 46° WSW 05:25:09 10° S
Meteor 1-11 Rocket 4.1 05:18:32 10° N 05:24:33 76° ENE 05:30:27 10° SSE
Cosmos 1741 Rocket 4.2 05:20:11 10° NNW 05:25:16 51° WSW 05:30:19 10° S
Cosmos 2227 Rocket 2.5 05:21:13 10° NNW 05:26:56 74° ENE 05:32:36 10° SE
Cosmos 2369 Rocket 3.6 05:25:33 13° W 05:28:50 21° NW 05:33:05 10° N
Meteor 1-10 Rocket 4.2 05:25:34 10° SSW 05:31:08 80° W 05:36:51 10° N
Meteor 2-11 Rocket 4.4 05:26:57 10° SSW 05:33:02 76° W 05:39:13 10° N
COSMO-SKYMED 1 3.4 05:29:53 10° SSW 05:33:41 29° W 05:37:30 10° NW
ATLAS 3B R/B 3.5 05:27:39 10° SSW 05:35:02 60° ESE 05:42:10 10° NE
Cosmos 1656 Rocket 3.9 05:32:31 10° SW 05:38:03 51° NW 05:43:37 10° NNE
Cosmos 1709 Rocket 3.9 05:35:44 10° NNW 05:41:52 77° W 05:47:58 10° S
USA 81 4.2 05:37:56 10° SSW 05:43:04 51° W 05:48:13 10° N
SJ-12 4.3 05:43:40 10° NNE 05:47:47 71° ESE 05:51:53 10° S
Cosmos 1536 2.9 05:49:07 10° N 05:53:09 82° E 05:57:09 10° S
Abrixas 2.3 05:50:58 10° W 05:53:51 87° N 05:56:46 10° E
Cosmos 2315 Rocket 4.1 05:50:07 10° S 05:56:30 82° W 06:02:54 10° N
